Wind_Speed
8 8 8 8 8 8 8 8 8 8 8 8 7 7 7 7 6 5 5 5 5 4 4 5 5 5 5 4 4 4 4 4 4 4 4 4 5 5 5 5 5 5 6
9 8 8 9 9 8 8 9 9 9 8 8 7 8 7 7 7 6 6 5 5 4 5 5 5 5 5 4 3 4 4 4 5 4 4 4 5 5 5 5 5 5 6
9 9 9 9 9 9 9 9 9 9 8 8 8 8 8 8 7 6 6 6 6 6 5 5 5 5 5 4 4 4 4 4 4 5 5 5 5 5 5 5 5 5 6
8 9 9 9 9 8 8 9 9 9 8 8 8 9 9 8 8 7 7 7 7 7 7 6 5 5 5 5 5 5 5 5 5 6 6 6 5 5 5 5 5 6 6
9 9 9 9 9 9 9 9 9 9 9 9 9 10 10 10 9 8 8 8 8 8 8 7 7 6 6 6 6 6 6 6 6 6 6 6 6 5 5 5 6 6 7
8 8 9 9 9 10 10 10 10 11 10 10 10 11 11 10 10 9 9 9 9 9 8 8 8 8 7 7 6 6 6 7 7 7 6 6 6 6 6 6 7 7 7
8 9 9 9 10 10 11 11 11 11 11 11 11 11 12 11 10 10 10 10 9 9 9 8 8 8 8 7 7 7 7 8 8 8 7 7 7 7 7 7 8 8 9
9 9 9 9 10 10 11 11 12 12 12 11 11 11 11 11 11 11 11 10 10 10 10 9 8 9 9 8 8 8 8 8 8 8 8 8 8 7 8 8 9 10 10
10 10 10 10 11 11 11 11 11 12 12 12 12 12 11 11 12 11 11 11 10 10 10 9 9 9 9 9 9 9 9 9 9 9 9 9 9 9 9 9 10 11 11
10 11 11 11 11 11 11 12 12 12 12 13 12 13 12 12 12 12 12 12 12 11 11 10 10 10 10 10 10 10 10 9 10 10 9 10 10 10 11 12 12 12 13
10 12 12 12 11 12 12 13 12 12 12 13 13 13 14 14 14 13 13 13 12 12 11 11 11 11 11 11 11 11 11 11 11 12 12 11 12 12 13 13 13 14 14
11 12 12 12 12 13 13 13 13 13 13 14 14 14 14 14 14 14 14 13 13 12 12 12 12 12 12 12 12 12 12 12 12 13 13 13 13 14 15 14 14 15 15
12 12 12 12 13 14 14 15 15 15 15 15 15 15 14 14 14 15 15 14 14 13 12 13 12 13 13 12 13 13 13 13 13 14 14 14 15 15 15 15 16 16 16
13 13 13 14 14 14 14 15 16 15 16 15 15 15 15 15 15 14 15 14 14 14 14 13 13 14 14 14 14 14 15 15 15 15 15 16 16 16 16 17 17 17 17
14 13 13 14 14 14 15 15 16 16 16 16 15 15 15 15 15 15 15 15 15 15 14 14 15 15 14 14 15 15 16 16 16 16 16 16 17 17 17 17 18 18 18
14 14 14 14 15 15 15 15 16 16 16 16 16 16 16 16 16 16 16 16 16 16 16 15 15 15 15 15 15 15 16 17 17 17 17 18 17 17 18 18 18 19 20
16 16 16 15 15 15 15 16 16 17 17 17 17 17 17 17 17 17 17 17 17 17 16 16 16 16 16 17 17 16 16 17 18 18 19 18 18 19 19 20 20 20 20
17 18 18 17 16 16 16 16 17 17 17 17 17 17 17 17 17 18 18 18 18 18 18 18 18 18 18 18 18 18 19 18 19 19 19 19 20 20 19 19 20 20 21
18 19 18 18 17 17 17 17 17 17 17 16 16 17 17 18 18 19 19 20 19 18 18 19 19 19 19 20 19 19 19 19 19 19 20 20 19 19 19 20 20 21 22
19 20 19 19 19 18 18 18 18 18 17 17 17 18 18 19 19 19 19 19 19 19 19 19 19 20 20 20 20 20 20 20 20 20 20 20 20 20 20 21 21 22 23
20 20 21 20 20 20 19 19 19 19 19 19 19 19 18 18 18 19 19 20 20 19 20 20 20 20 20 20 21 21 21 21 21 21 21 21 20 20 21 22 22 23 24
21 21 21 20 21 22 21 20 20 20 20 20 19 19 19 19 19 18 19 19 20 20 20 20 20 21 21 21 21 22 21 22 22 22 22 22 22 22 23 23 24 25 25
21 21 21 20 21 21 21 21 21 21 21 21 21 20 20 19 19 19 19 19 19 20 21 21 21 21 21 21 21 21 22 22 22 21 22 22 23 23 23 24 24 25 26
22 21 21 20 21 22 22 22 22 21 21 21 21 21 21 20 20 20 20 19 19 20 20 21 21 20 20 20 21 22 22 21 21 21 22 22 22 23 23 24 25 25 26
22 22 22 21 21 21 22 22 22 22 21 21 21 22 21 21 21 21 21 21 21 20 21 21 21 21 20 21 21 22 22 21 22 22 22 22 22 23 24 25 26 26 27
22 22 21 22 22 21 21 22 22 22 22 21 21 22 22 22 22 22 22 22 22 21 21 21 21 22 22 22 22 23 23 23 23 23 23 23 24 24 26 27 27 28 28
Wind_Direction
259 261 259 257 254 253 254 256 256 255 256 255 257 264 269 275 274 274 276 281 278 279 285 290 293 290 285 272 271 276 281 289 296 300 293 286 294 290 290 289 289 287 288
259 260 258 259 251 252 254 255 258 258 259 258 256 259 265 268 265 261 268 274 273 274 283 293 300 296 293 280 274 278 280 286 297 302 298 293 294 292 295 293 290 285 289
255 257 256 257 256 256 256 258 261 259 258 260 256 256 261 262 259 258 260 266 269 273 275 279 291 295 294 286 277 280 285 281 287 295 297 297 299 299 298 299 299 295 296
255 254 252 252 254 255 254 254 258 255 256 258 255 255 256 255 257 257 259 264 268 269 268 271 278 288 289 285 283 282 282 281 283 289 293 291 292 295 299 301 304 303 302
252 249 248 252 253 253 251 253 255 255 256 256 254 254 254 253 251 253 257 262 268 266 264 266 272 279 282 280 279 285 278 279 284 289 292 288 287 287 289 294 297 297 298
248 248 250 252 254 253 252 256 257 258 257 255 254 252 252 252 249 251 254 258 264 264 261 264 269 274 278 277 274 279 276 276 280 285 288 288 288 286 285 292 297 297 299
251 254 254 256 257 258 257 257 258 258 257 257 255 253 250 250 252 254 255 257 262 261 260 265 270 272 274 275 274 273 271 273 279 284 283 283 288 288 287 290 294 295 295
249 255 259 260 260 261 261 262 264 259 256 254 253 251 248 248 252 254 256 259 261 261 260 264 270 271 271 272 270 270 271 274 279 282 281 283 287 287 285 285 291 294 295
243 252 260 262 262 263 264 265 265 260 255 253 251 251 250 252 253 251 255 257 256 261 263 264 267 267 269 268 269 270 270 272 277 280 283 286 286 287 284 286 288 290 293
246 252 258 261 261 263 266 266 263 260 258 255 254 254 254 253 252 253 254 257 258 258 260 263 263 264 266 265 266 267 269 270 274 276 283 284 284 288 292 292 290 291 292
252 255 258 258 259 263 266 265 261 260 260 258 256 256 256 255 254 254 254 257 259 259 260 260 262 266 266 265 265 267 269 272 274 276 279 284 285 287 289 288 288 289 291
260 259 259 259 261 264 264 263 261 260 259 258 258 257 258 257 254 254 254 254 256 258 260 261 263 266 266 265 264 265 268 273 275 277 279 281 285 288 289 287 288 289 290
263 261 260 260 261 263 263 263 263 261 261 261 260 259 259 258 257 255 257 257 255 256 260 260 262 264 265 265 266 267 267 271 275 276 278 281 284 287 287 287 289 289 290
265 264 262 261 261 262 263 264 263 262 261 262 261 260 258 257 257 256 256 256 256 258 261 261 263 264 263 265 268 268 268 270 273 276 279 283 285 285 286 287 288 288 288
261 261 263 264 262 262 263 264 264 262 262 262 260 260 260 258 258 255 254 256 258 260 262 263 264 265 263 265 267 271 272 273 275 277 279 283 284 285 286 288 288 288 288
262 265 265 266 265 265 266 265 264 262 262 262 260 260 260 258 257 254 254 257 259 261 262 263 264 264 265 267 268 271 271 273 275 276 279 283 285 287 289 289 289 288 289
262 264 265 267 269 269 267 265 264 263 263 261 259 260 259 256 254 253 255 256 258 260 258 261 261 264 266 268 270 272 272 274 276 279 280 282 284 286 289 290 290 289 288
261 263 265 266 268 268 267 265 264 264 263 261 260 262 260 258 257 256 255 256 258 260 258 258 259 262 267 267 268 271 274 277 278 279 281 283 284 285 287 289 291 291 290
261 261 263 263 265 266 266 265 264 264 263 261 263 265 263 261 259 257 257 258 258 259 257 259 261 263 266 269 271 274 277 278 279 280 281 283 284 284 287 289 291 291 289
259 260 261 262 264 264 265 266 265 262 261 260 261 264 266 263 261 259 258 258 258 258 258 260 262 263 266 269 272 274 277 278 279 281 284 283 283 285 288 289 290 291 292
260 262 262 262 263 264 265 265 263 262 261 261 261 263 265 264 261 260 258 257 258 259 260 260 261 263 265 268 271 272 274 276 278 281 283 284 284 286 287 289 291 292 292
261 262 263 263 262 263 264 265 264 262 261 260 260 261 263 263 261 260 260 259 258 259 261 261 262 264 265 267 269 272 275 277 278 279 282 283 284 286 287 289 290 291 292
261 261 261 263 262 262 262 262 262 261 260 260 260 260 261 262 260 259 259 260 260 260 262 263 265 265 266 266 268 271 272 274 277 279 280 281 283 286 288 290 291 292 293
260 261 262 262 262 262 261 261 262 261 259 259 259 258 257 258 257 256 257 258 258 261 263 264 266 266 266 267 269 272 274 274 276 278 281 283 284 286 288 290 292 294 295
260 261 261 261 261 261 262 262 262 261 260 258 258 257 255 256 256 256 257 259 260 261 263 264 265 265 265 267 268 271 273 274 276 279 282 285 287 289 290 291 293 294 295
258 259 259 259 260 261 261 262 263 261 260 260 259 257 256 256 256 256 256 258 260 262 262 263 265 265 266 267 268 270 271 274 277 279 282 285 287 290 291 291 292 293 295
Height
5868 5868 5868 5868 5868 5869 5869 5869 5869 5869 5869 5870 5870 5870 5870 5869 5869 5869 5869 5868 5868 5868 5867 5867 5867 5866 5866 5865 5865 5865 5865 5865 5864 5864 5863 5863 5863 5862 5861 5861 5860 5859 5858
5865 5865 5865 5866 5866 5866 5866 5867 5867 5867 5867 5867 5868 5868 5868 5868 5868 5867 5867 5867 5867 5866 5866 5866 5865 5865 5864 5864 5864 5864 5864 5864 5863 5863 5863 5862 5862 5861 5860 5859 5859 5858 5857
5862 5863 5863 5863 5864 5864 5864 5864 5864 5865 5865 5865 5865 5865 5866 5866 5866 5865 5865 5865 5865 5865 5864 5864 5864 5863 5863 5863 5863 5863 5862 5862 5862 5862 5862 5861 5860 5859 5859 5858 5857 5856 5855
5860 5860 5860 5861 5861 5862 5862 5862 5862 5862 5863 5863 5863 5863 5863 5864 5864 5863 5863 5863 5863 5863 5863 5863 5862 5862 5862 5861 5861 5861 5861 5861 5860 5860 5860 5859 5859 5858 5858 5857 5856 5855 5854
5857 5857 5858 5858 5859 5859 5860 5860 5860 5860 5860 5860 5860 5861 5861 5861 5862 5861 5861 5861 5861 5861 5861 5861 5861 5860 5860 5860 5860 5859 5859 5859 5859 5858 5858 5857 5857 5857 5856 5855 5855 5854 5853
5854 5854 5855 5855 5856 5856 5857 5857 5857 5857 5857 5858 5858 5858 5858 5858 5859 5859 5859 5859 5859 5859 5859 5859 5859 5859 5858 5858 5858 5858 5857 5857 5857 5857 5856 5856 5855 5855 5854 5854 5853 5852 5851
5851 5852 5852 5852 5853 5853 5854 5854 5854 5854 5854 5854 5854 5855 5855 5856 5856 5856 5857 5857 5857 5857 5857 5857 5857 5856 5856 5856 5856 5856 5856 5855 5855 5855 5854 5854 5853 5853 5852 5852 5851 5850 5849
5848 5849 5849 5850 5850 5850 5850 5850 5851 5851 5851 5851 5851 5852 5852 5853 5853 5854 5854 5854 5854 5854 5854 5854 5854 5854 5854 5854 5854 5853 5853 5853 5853 5852 5852 5852 5851 5850 5850 5849 5848 5847 5846
5846 5846 5846 5847 5847 5847 5847 5847 5847 5848 5848 5848 5848 5849 5849 5850 5850 5850 5851 5851 5851 5851 5851 5851 5852 5852 5852 5851 5851 5851 5851 5851 5851 5850 5850 5849 5849 5848 5847 5847 5846 5846 5844
5843 5843 5843 5843 5844 5844 5844 5844 5844 5845 5845 5845 5845 5845 5846 5846 5847 5847 5847 5848 5848 5848 5848 5849 5849 5849 5849 5849 5849 5849 5848 5848 5848 5847 5847 5846 5846 5845 5845 5844 5843 5842 5841
5839 5839 5840 5840 5840 5840 5841 5841 5841 5841 5841 5841 5841 5842 5842 5843 5843 5843 5844 5844 5845 5845 5845 5845 5845 5846 5846 5846 5846 5846 5845 5845 5845 5844 5844 5844 5843 5842 5842 5841 5840 5839 5838
5836 5836 5836 5836 5837 5837 5837 5837 5837 5838 5838 5838 5838 5838 5838 5839 5839 5839 5840 5841 5841 5841 5842 5842 5842 5842 5842 5842 5842 5842 5842 5842 5842 5841 5841 5840 5840 5839 5838 5837 5836 5835 5834
5832 5832 5832 5833 5833 5833 5834 5834 5834 5834 5834 5834 5834 5834 5835 5835 5835 5836 5836 5837 5837 5838 5838 5838 5839 5839 5839 5839 5839 5839 5839 5838 5838 5838 5837 5836 5836 5835 5834 5833 5832 5831 5830
5828 5828 5829 5829 5829 5829 5829 5830 5830 5830 5830 5830 5830 5831 5831 5831 5831 5832 5832 5833 5833 5834 5834 5834 5834 5835 5835 5835 5835 5835 5835 5834 5834 5834 5833 5832 5831 5831 5830 5828 5827 5826 5825
5823 5824 5824 5825 5825 5825 5825 5825 5825 5825 5826 5826 5826 5826 5827 5826 5827 5827 5828 5829 5829 5829 5830 5830 5830 5830 5830 5831 5831 5831 5830 5830 5830 5829 5828 5828 5827 5826 5825 5824 5822 5821 5820
5819 5820 5820 5820 5820 5820 5821 5821 5821 5821 5821 5821 5821 5822 5822 5822 5822 5823 5824 5824 5824 5825 5825 5825 5826 5826 5826 5826 5826 5826 5826 5825 5825 5824 5824 5823 5822 5821 5820 5819 5817 5816 5814
5814 5815 5815 5816 5816 5816 5816 5816 5816 5816 5817 5817 5817 5817 5817 5817 5818 5818 5819 5819 5819 5820 5820 5821 5821 5821 5821 5821 5821 5821 5821 5821 5820 5819 5819 5818 5817 5816 5815 5813 5812 5810 5808
5809 5809 5810 5810 5811 5811 5811 5811 5811 5811 5811 5811 5812 5812 5812 5812 5812 5813 5813 5814 5814 5815 5815 5816 5816 5816 5816 5816 5816 5816 5816 5815 5815 5814 5814 5813 5812 5810 5809 5808 5806 5804 5803
5803 5803 5804 5805 5805 5806 5806 5806 5806 5806 5806 5806 5806 5806 5806 5807 5807 5807 5808 5809 5809 5810 5810 5810 5811 5811 5811 5811 5811 5811 5810 5810 5809 5808 5808 5807 5806 5805 5804 5802 5801 5799 5797
5797 5797 5798 5799 5799 5800 5800 5800 5800 5801 5801 5801 5801 5801 5801 5801 5801 5801 5802 5802 5803 5804 5804 5805 5805 5805 5806 5806 5806 5805 5805 5805 5804 5803 5802 5801 5800 5799 5798 5797 5795 5793 5792
5790 5791 5792 5792 5793 5793 5794 5794 5794 5794 5795 5795 5795 5795 5795 5795 5795 5796 5796 5796 5797 5797 5798 5799 5799 5799 5800 5800 5800 5799 5799 5799 5798 5797 5796 5795 5794 5793 5792 5790 5789 5787 5785
5784 5784 5785 5785 5786 5786 5787 5787 5787 5788 5788 5788 5789 5789 5789 5789 5790 5790 5790 5790 5791 5791 5792 5792 5793 5793 5793 5793 5793 5793 5793 5792 5792 5791 5790 5789 5788 5787 5785 5784 5782 5780 5778
5776 5777 5778 5778 5779 5779 5779 5780 5780 5780 5781 5782 5782 5783 5783 5783 5784 5784 5784 5785 5785 5785 5785 5786 5786 5787 5787 5787 5787 5787 5786 5786 5785 5785 5784 5783 5781 5780 5779 5777 5775 5773 5771
5769 5770 5771 5771 5772 5772 5772 5772 5773 5773 5774 5775 5775 5776 5776 5777 5777 5778 5778 5778 5779 5779 5779 5779 5780 5780 5780 5781 5780 5780 5780 5780 5779 5778 5777 5776 5775 5773 5772 5770 5768 5766 5764
5762 5762 5763 5764 5764 5765 5765 5765 5765 5766 5766 5767 5768 5769 5769 5770 5771 5771 5772 5772 5773 5773 5773 5773 5774 5774 5774 5774 5774 5774 5774 5773 5772 5772 5771 5770 5768 5767 5765 5763 5761 5759 5757
5754 5755 5756 5756 5757 5757 5758 5758 5758 5758 5759 5760 5761 5761 5762 5763 5764 5764 5765 5765 5766 5766 5766 5767 5767 5767 5767 5767 5767 5767 5767 5766 5766 5765 5764 5763 5761 5760 5758 5756 5754 5752 5749